{"data":{"norad_id":63752,"epoch":"2026-05-24T20:18:54.843840Z","epoch_age_seconds":95045,"freshness":"FRESH","line1":"1 63752U 25089B   26144.84646810  .00235900  00000+0  17858-2 0  9990","line2":"2 63752  43.0014 193.1392 0000933  42.8112 317.2828 15.70898820 62117","mean_motion":15.7089882,"eccentricity":9.33e-5,"inclination_deg":43.0014,"raan_deg":193.1392,"arg_perigee_deg":42.8112,"mean_anomaly_deg":317.2828,"bstar":0.0017858,"rev_number":6211,"period_min":91.667266005076,"perigee_km":355.69862275966,"apogee_km":356.9552737324,"semimajor_km":6734.463948246,"source":"CELESTRAK","updated_at":"2026-05-25T13:38:20.102962Z"}}